TimeGMT,TemperatureF,Dew PointF,Humidity,Sea Level PressureIn,VisibilityMPH,Wind Direction,Wind SpeedMPH,Gust SpeedMPH,PrecipitationIn,Events,Conditions,WindDirDegrees,DateUTC
12:50 AM,33.8,28.4,81,30.27,6.2,North,10.4,-,N/A,,Mostly Cloudy,360,2013-02-25 00:50:00
1:50 AM,33.8,28.4,81,30.27,6.2,North,9.2,-,N/A,,Mostly Cloudy,350,2013-02-25 01:50:00
2:50 AM,35,31,78,30.28,11,North,11.5,,,,Overcast,10,2013-02-25 02:50:00
2:50 AM,33.8,30.2,87,30.24,6.2,North,11.5,-,N/A,,Overcast,10,2013-02-25 02:50:00
3:50 AM,35.6,30.2,81,30.24,6.2,NNE,9.2,-,N/A,,Mostly Cloudy,20,2013-02-25 03:50:00
4:50 AM,35.6,30.2,81,30.27,6.2,NNE,9.2,-,N/A,,Overcast,30,2013-02-25 04:50:00
5:50 AM,35,31,78,30.30,9,NNE,10.4,,,,Overcast,20,2013-02-25 05:50:00
5:50 AM,35.6,30.2,81,30.27,6.2,NNE,10.4,-,N/A,,Overcast,20,2013-02-25 05:50:00
6:50 AM,35.6,30.2,81,30.30,6.2,NNE,10.4,-,N/A,,Overcast,20,2013-02-25 06:50:00
7:50 AM,35.6,30.2,81,30.33,6.2,NNE,10.4,-,N/A,,Light Drizzle,30,2013-02-25 07:50:00
8:50 AM,37,31,72,30.35,9,NNE,9.2,,,Rain,Light Drizzle,30,2013-02-25 08:50:00
8:50 AM,37.4,32.0,81,30.33,6.2,NNE,9.2,-,N/A,,Light Drizzle,30,2013-02-25 08:50:00
9:50 AM,37.4,32.0,81,30.33,6.2,NNE,10.4,-,N/A,Rain,Light Rain,20,2013-02-25 09:50:00
10:50 AM,39.2,32.0,75,30.36,6.2,NNE,11.5,-,N/A,Rain,Light Rain,20,2013-02-25 10:50:00
11:50 AM,38,30,64,30.38,12,NE,11.5,,,Rain,Light Rain,40,2013-02-25 11:50:00
11:50 AM,39.2,30.2,70,30.36,6.2,NE,11.5,-,N/A,,Overcast,40,2013-02-25 11:50:00
12:50 PM,39.2,32.0,75,30.33,6.2,NNE,12.7,-,N/A,Rain,Light Rain,30,2013-02-25 12:50:00
1:50 PM,39.2,32.0,75,30.33,6.2,NNE,12.7,-,N/A,,Mostly Cloudy,20,2013-02-25 13:50:00
2:50 PM,39,31,65,30.35,9,NE,15.0,,,Rain,Light Drizzle,40,2013-02-25 14:50:00
2:50 PM,39.2,32.0,75,30.33,6.2,NE,15.0,-,N/A,,Light Drizzle,40,2013-02-25 14:50:00
3:50 PM,39.2,32.0,75,30.33,6.2,NNE,10.4,-,N/A,Rain,Light Rain,30,2013-02-25 15:50:00
4:50 PM,39.2,32.0,75,30.33,6.2,NNE,15.0,-,N/A,,Overcast,30,2013-02-25 16:50:00
5:50 PM,39,32,69,30.37,9,NNE,13.8,,,,Partly Cloudy,30,2013-02-25 17:50:00
5:50 PM,39.2,32.0,75,30.36,6.2,NNE,13.8,-,N/A,,Overcast,30,2013-02-25 17:50:00
6:50 PM,39.2,32.0,75,30.36,6.2,NNE,16.1,-,N/A,,Light Drizzle,30,2013-02-25 18:50:00
7:50 PM,39.2,33.8,81,30.36,6.2,NNE,15.0,-,N/A,,Light Drizzle,30,2013-02-25 19:50:00
8:50 PM,38,34,78,30.39,7,NE,13.8,,,,Overcast,40,2013-02-25 20:50:00
8:50 PM,39.2,33.8,81,30.36,6.2,NE,13.8,-,N/A,,Overcast,40,2013-02-25 20:50:00
9:50 PM,39.2,32.0,75,30.36,6.2,NE,15.0,-,N/A,,Overcast,50,2013-02-25 21:50:00
10:50 PM,37.4,32.0,81,30.39,6.2,NE,16.1,-,N/A,,Overcast,50,2013-02-25 22:50:00
11:50 PM,37,32,76,30.40,10,NE,16.1,,,,Overcast,50,2013-02-25 23:50:00
11:50 PM,37.4,32.0,81,30.39,6.2,NE,16.1,-,N/A,,Overcast,50,2013-02-25 23:50:00